QPF
0.01 0.04 0.05 0.05 0.04 0.02 0.01 0.01 0.01 0.02 0.06 0.10 0.10 0.15 0.07 0.02 0.00 0.00 0.00 0.01 0.01 0.01 0.01 0.04 0.04 0.02 0.01 0.01 0.03 0.05 0.08 0.06 0.05 0.05 0.06 0.05 0.04 0.05 0.05 0.04 0.03 0.03 0.02 0.01
0.01 0.02 0.02 0.02 0.01 0.01 0.01 0.00 0.00 0.02 0.05 0.07 0.09 0.11 0.06 0.02 0.01 0.00 0.00 0.00 0.00 0.00 0.00 0.02 0.03 0.02 0.01 0.02 0.03 0.04 0.08 0.10 0.07 0.06 0.06 0.05 0.05 0.06 0.07 0.06 0.05 0.03 0.03 0.03
0.02 0.01 0.02 0.01 0.01 0.01 0.01 0.01 0.01 0.03 0.06 0.09 0.09 0.04 0.02 0.01 0.01 0.00 0.00 0.00 0.00 0.00 0.01 0.01 0.01 0.01 0.01 0.01 0.03 0.04 0.05 0.07 0.08 0.10 0.09 0.07 0.05 0.05 0.04 0.04 0.04 0.04 0.05 0.05
0.03 0.04 0.06 0.02 0.01 0.01 0.01 0.02 0.03 0.03 0.04 0.08 0.08 0.03 0.01 0.00 0.00 0.00 0.00 0.00 0.00 0.01 0.01 0.02 0.02 0.01 0.01 0.01 0.02 0.04 0.05 0.06 0.06 0.09 0.11 0.10 0.09 0.07 0.06 0.06 0.05 0.06 0.05 0.06
0.08 0.09 0.08 0.05 0.03 0.02 0.03 0.04 0.03 0.04 0.05 0.04 0.03 0.02 0.02 0.01 0.00 0.00 0.00 0.00 0.00 0.00 0.01 0.01 0.02 0.02 0.02 0.03 0.04 0.06 0.08 0.08 0.06 0.07 0.09 0.11 0.10 0.09 0.09 0.09 0.09 0.09 0.09 0.07
0.07 0.10 0.13 0.12 0.07 0.03 0.05 0.11 0.04 0.03 0.05 0.03 0.04 0.10 0.09 0.03 0.01 0.00 0.00 0.00 0.00 0.01 0.01 0.01 0.01 0.02 0.03 0.05 0.05 0.07 0.07 0.08 0.08 0.09 0.10 0.10 0.11 0.12 0.13 0.12 0.11 0.10 0.09 0.07
0.06 0.09 0.11 0.10 0.09 0.05 0.11 0.16 0.04 0.03 0.05 0.05 0.05 0.06 0.04 0.02 0.01 0.01 0.01 0.01 0.01 0.03 0.03 0.02 0.02 0.03 0.05 0.08 0.09 0.08 0.07 0.08 0.10 0.15 0.20 0.18 0.15 0.14 0.14 0.13 0.11 0.10 0.09 0.08
0.07 0.11 0.16 0.10 0.05 0.08 0.11 0.07 0.05 0.02 0.02 0.02 0.01 0.01 0.01 0.01 0.01 0.01 0.01 0.01 0.02 0.03 0.04 0.05 0.05 0.05 0.06 0.07 0.06 0.05 0.05 0.06 0.07 0.11 0.14 0.16 0.17 0.15 0.13 0.12 0.10 0.09 0.09 0.07
0.11 0.12 0.11 0.08 0.05 0.04 0.04 0.04 0.04 0.02 0.01 0.01 0.01 0.02 0.01 0.01 0.01 0.01 0.01 0.01 0.02 0.02 0.02 0.04 0.05 0.06 0.09 0.08 0.07 0.08 0.09 0.08 0.07 0.06 0.07 0.08 0.09 0.09 0.08 0.07 0.06 0.05 0.05 0.05
0.18 0.15 0.09 0.05 0.03 0.01 0.01 0.02 0.01 0.00 0.00 0.01 0.02 0.03 0.02 0.02 0.02 0.02 0.01 0.01 0.02 0.02 0.03 0.02 0.02 0.02 0.03 0.05 0.05 0.07 0.09 0.11 0.09 0.07 0.06 0.06 0.05 0.05 0.05 0.05 0.05 0.05 0.05 0.06
0.20 0.18 0.13 0.07 0.02 0.01 0.01 0.01 0.01 0.01 0.01 0.02 0.02 0.02 0.02 0.02 0.02 0.01 0.01 0.01 0.01 0.02 0.03 0.03 0.03 0.02 0.02 0.02 0.03 0.06 0.09 0.09 0.08 0.06 0.06 0.05 0.05 0.05 0.06 0.06 0.06 0.06 0.06 0.06
0.16 0.14 0.11 0.08 0.02 0.01 0.01 0.01 0.01 0.01 0.01 0.01 0.00 0.00 0.01 0.02 0.02 0.02 0.01 0.01 0.01 0.01 0.01 0.01 0.01 0.01 0.01 0.02 0.02 0.03 0.03 0.04 0.04 0.03 0.03 0.03 0.04 0.04 0.04 0.03 0.03 0.03 0.03 0.03
0.07 0.06 0.06 0.05 0.02 0.00 0.01 0.01 0.01 0.01 0.01 0.00 0.00 0.00 0.00 0.01 0.01 0.00 0.00 0.01 0.00 0.00 0.01 0.01 0.00 0.01 0.01 0.01 0.01 0.01 0.01 0.02 0.02 0.02 0.02 0.02 0.02 0.03 0.03 0.03 0.02 0.02 0.01 0.01
0.04 0.06 0.06 0.05 0.02 0.01 0.01 0.01 0.01 0.02 0.01 0.00 0.00 0.00 0.00 0.00 0.00 0.01 0.01 0.01 0.01 0.00 0.00 0.00 0.00 0.00 0.01 0.02 0.03 0.03 0.02 0.02 0.02 0.02 0.02 0.02 0.01 0.01 0.01 0.00 0.00 0.00 0.00 0.00
0.05 0.06 0.07 0.05 0.02 0.01 0.01 0.01 0.01 0.01 0.01 0.01 0.01 0.00 0.00 0.00 0.00 0.01 0.01 0.00 0.00 0.00 0.00 0.00 0.00 0.00 0.00 0.00 0.00 0.01 0.01 0.01 0.01 0.01 0.00 0.00 0.00 0.00 0.00 0.00 0.00 0.00 0.00 0.00
0.04 0.05 0.05 0.03 0.02 0.01 0.01 0.01 0.01 0.01 0.01 0.01 0.01 0.01 0.01 0.01 0.01 0.01 0.01 0.00 0.00 0.00 0.00 0.00 0.00 0.00 0.00 0.00 0.00 0.00 0.00 0.00 0.00 0.00 0.00 0.00 0.00 0.00 0.00 0.00 0.00 0.00 0.00 0.00
0.06 0.05 0.04 0.04 0.03 0.02 0.02 0.01 0.01 0.01 0.01 0.01 0.01 0.01 0.01 0.01 0.01 0.01 0.01 0.01 0.00 0.00 0.00 0.00 0.00 0.00 0.00 0.00 0.00 0.00 0.00 0.00 0.00 0.00 0.00 0.00 0.00 0.00 0.00 0.00 0.00 0.00 0.00 0.00
0.04 0.03 0.02 0.03 0.04 0.04 0.03 0.02 0.01 0.01 0.01 0.01 0.00 0.00 0.00 0.00 0.00 0.01 0.01 0.01 0.01 0.01 0.01 0.01 0.00 0.00 0.00 0.00 0.00 0.00 0.00 0.00 0.00 0.00 0.00 0.00 0.00 0.00 0.00 0.00 0.00 0.00 0.00 0.00
0.01 0.01 0.01 0.02 0.02 0.02 0.01 0.01 0.01 0.00 0.00 0.00 0.00 0.00 0.00 0.00 0.01 0.01 0.01 0.01 0.01 0.01 0.01 0.01 0.00 0.01 0.01 0.01 0.00 0.01 0.01 0.00 0.00 0.00 0.00 0.00 0.00 0.00 0.00 0.00 0.01 0.01 0.01 0.01
0.01 0.01 0.01 0.01 0.01 0.00 0.00 0.00 0.00 0.00 0.00 0.00 0.00 0.00 0.00 0.00 0.00 0.00 0.01 0.01 0.01 0.01 0.01 0.00 0.00 0.01 0.01 0.00 0.00 0.00 0.00 0.00 0.00 0.00 0.00 0.00 0.00 0.01 0.01 0.01 0.01 0.01 0.01 0.01
0.01 0.01 0.01 0.01 0.01 0.00 0.00 0.00 0.00 0.00 0.00 0.00 0.00 0.00 0.00 0.01 0.01 0.00 0.01 0.01 0.01 0.00 0.00 0.00 0.00 0.00 0.00 0.00 0.00 0.00 0.00 0.00 0.00 0.00 0.00 0.00 0.01 0.01 0.02 0.01 0.01 0.01 0.01 0.02
0.00 0.01 0.01 0.01 0.01 0.01 0.00 0.00 0.00 0.00 0.00 0.00 0.00 0.01 0.01 0.01 0.01 0.01 0.01 0.01 0.00 0.00 0.00 0.00 0.00 0.00 0.00 0.00 0.00 0.00 0.00 0.00 0.00 0.00 0.01 0.01 0.01 0.01 0.01 0.01 0.01 0.02 0.02 0.03
0.00 0.00 0.01 0.01 0.01 0.00 0.00 0.00 0.00 0.00 0.00 0.00 0.01 0.01 0.01 0.01 0.00 0.00 0.00 0.00 0.00 0.00 0.00 0.00 0.00 0.00 0.00 0.00 0.00 0.01 0.01 0.01 0.01 0.01 0.01 0.02 0.02 0.02 0.01 0.01 0.02 0.02 0.03 0.02
0.01 0.01 0.00 0.00 0.00 0.00 0.00 0.00 0.00 0.00 0.01 0.01 0.01 0.00 0.00 0.00 0.00 0.00 0.00 0.00 0.00 0.00 0.01 0.00 0.00 0.00 0.00 0.01 0.01 0.01 0.02 0.02 0.01 0.01 0.01 0.01 0.01 0.01 0.01 0.02 0.02 0.03 0.03 0.03
0.01 0.01 0.01 0.01 0.01 0.01 0.00 0.00 0.00 0.00 0.01 0.01 0.00 0.00 0.00 0.00 0.00 0.01 0.01 0.01 0.01 0.01 0.01 0.01 0.00 0.00 0.01 0.02 0.02 0.02 0.02 0.02 0.01 0.01 0.01 0.01 0.01 0.02 0.03 0.03 0.04 0.04 0.04 0.04
0.01 0.01 0.01 0.01 0.01 0.00 0.00 0.00 0.00 0.01 0.01 0.01 0.01 0.00 0.01 0.01 0.01 0.02 0.02 0.01 0.01 0.01 0.01 0.02 0.02 0.02 0.02 0.03 0.03 0.02 0.02 0.01 0.01 0.01 0.01 0.02 0.02 0.02 0.02 0.03 0.03 0.03 0.03 0.03
0.00 0.01 0.01 0.01 0.01 0.00 0.00 0.00 0.01 0.01 0.01 0.01 0.01 0.01 0.01 0.01 0.02 0.03 0.02 0.01 0.01 0.01 0.02 0.03 0.03 0.03 0.03 0.02 0.02 0.01 0.01 0.01 0.01 0.01 0.02 0.02 0.02 0.02 0.02 0.02 0.02 0.03 0.03 0.03
MSLP
1005.32 1005.81 1006.27 1006.67 1006.98 1007.17 1007.24 1007.17 1006.98 1006.69 1006.33 1005.95 1005.59 1005.27 1005.04 1004.91 1004.89 1004.96 1005.13 1005.37 1005.67 1006.03 1006.42 1006.84 1007.29 1007.77 1008.25 1008.74 1009.21 1009.67 1010.09 1010.48 1010.83 1011.16 1011.47 1011.78 1012.11 1012.45 1012.82 1013.20 1013.60 1014.00 1014.39 1014.76
1005.40 1005.81 1006.15 1006.39 1006.52 1006.53 1006.45 1006.30 1006.10 1005.89 1005.68 1005.50 1005.36 1005.28 1005.24 1005.24 1005.28 1005.35 1005.44 1005.56 1005.71 1005.90 1006.13 1006.42 1006.77 1007.17 1007.60 1008.06 1008.51 1008.95 1009.36 1009.73 1010.07 1010.38 1010.67 1010.98 1011.30 1011.65 1012.03 1012.44 1012.85 1013.27 1013.67 1014.05
1005.39 1005.71 1005.91 1005.98 1005.93 1005.79 1005.60 1005.40 1005.23 1005.11 1005.08 1005.12 1005.24 1005.40 1005.58 1005.75 1005.90 1005.99 1006.05 1006.07 1006.09 1006.13 1006.21 1006.35 1006.57 1006.86 1007.21 1007.60 1008.01 1008.40 1008.76 1009.10 1009.40 1009.67 1009.94 1010.23 1010.55 1010.89 1011.28 1011.69 1012.12 1012.54 1012.95 1013.33
1005.35 1005.53 1005.57 1005.47 1005.27 1005.00 1004.72 1004.49 1004.37 1004.37 1004.52 1004.79 1005.17 1005.59 1006.01 1006.38 1006.66 1006.83 1006.90 1006.87 1006.80 1006.72 1006.67 1006.67 1006.76 1006.94 1007.18 1007.48 1007.81 1008.13 1008.43 1008.71 1008.96 1009.19 1009.43 1009.69 1009.99 1010.33 1010.71 1011.11 1011.53 1011.95 1012.34 1012.70
1005.33 1005.34 1005.20 1004.93 1004.58 1004.19 1003.85 1003.62 1003.55 1003.68 1004.00 1004.50 1005.13 1005.80 1006.46 1007.03 1007.47 1007.75 1007.87 1007.85 1007.74 1007.59 1007.44 1007.34 1007.32 1007.39 1007.53 1007.74 1007.97 1008.22 1008.45 1008.67 1008.86 1009.05 1009.26 1009.49 1009.76 1010.07 1010.43 1010.81 1011.21 1011.60 1011.96 1012.28
1005.38 1005.18 1004.85 1004.41 1003.92 1003.44 1003.06 1002.83 1002.83 1003.07 1003.56 1004.26 1005.10 1005.99 1006.86 1007.63 1008.23 1008.63 1008.84 1008.87 1008.77 1008.60 1008.41 1008.26 1008.16 1008.15 1008.22 1008.34 1008.50 1008.68 1008.85 1009.01 1009.16 1009.30 1009.47 1009.66 1009.90 1010.18 1010.50 1010.84 1011.19 1011.53 1011.84 1012.11
1005.47 1005.06 1004.55 1003.96 1003.36 1002.82 1002.41 1002.22 1002.28 1002.62 1003.24 1004.08 1005.09 1006.15 1007.19 1008.11 1008.85 1009.38 1009.69 1009.80 1009.76 1009.62 1009.44 1009.28 1009.17 1009.12 1009.14 1009.22 1009.33 1009.46 1009.59 1009.70 1009.81 1009.91 1010.03 1010.18 1010.37 1010.61 1010.87 1011.16 1011.45 1011.73 1011.97 1012.18
1005.56 1004.97 1004.30 1003.61 1002.94 1002.38 1001.99 1001.84 1001.97 1002.40 1003.11 1004.05 1005.15 1006.31 1007.45 1008.46 1009.31 1009.93 1010.34 1010.54 1010.57 1010.51 1010.39 1010.27 1010.19 1010.15 1010.18 1010.25 1010.34 1010.45 1010.54 1010.62 1010.69 1010.76 1010.84 1010.94 1011.07 1011.24 1011.44 1011.66 1011.88 1012.08 1012.26 1012.40
1005.58 1004.85 1004.10 1003.36 1002.70 1002.17 1001.84 1001.77 1001.97 1002.47 1003.23 1004.21 1005.34 1006.53 1007.68 1008.73 1009.61 1010.29 1010.76 1011.04 1011.17 1011.19 1011.16 1011.13 1011.11 1011.13 1011.19 1011.28 1011.39 1011.48 1011.56 1011.62 1011.65 1011.68 1011.70 1011.75 1011.81 1011.91 1012.04 1012.18 1012.32 1012.46 1012.57 1012.66
1005.46 1004.67 1003.91 1003.21 1002.62 1002.20 1001.99 1002.02 1002.32 1002.87 1003.66 1004.63 1005.72 1006.86 1007.96 1008.96 1009.81 1010.50 1011.00 1011.34 1011.54 1011.66 1011.74 1011.80 1011.87 1011.97 1012.08 1012.21 1012.33 1012.42 1012.49 1012.52 1012.51 1012.49 1012.45 1012.42 1012.42 1012.44 1012.48 1012.55 1012.63 1012.70 1012.77 1012.82
1005.17 1004.41 1003.72 1003.15 1002.72 1002.47 1002.42 1002.60 1003.00 1003.61 1004.39 1005.32 1006.33 1007.36 1008.34 1009.24 1010.02 1010.65 1011.14 1011.51 1011.77 1011.97 1012.14 1012.29 1012.45 1012.61 1012.78 1012.94 1013.07 1013.16 1013.19 1013.18 1013.12 1013.03 1012.92 1012.82 1012.74 1012.68 1012.65 1012.66 1012.68 1012.72 1012.77 1012.81
1004.76 1004.10 1003.57 1003.19 1002.98 1002.95 1003.11 1003.46 1003.97 1004.63 1005.41 1006.27 1007.16 1008.05 1008.88 1009.64 1010.30 1010.85 1011.29 1011.65 1011.95 1012.20 1012.43 1012.66 1012.88 1013.09 1013.29 1013.45 1013.56 1013.61 1013.60 1013.53 1013.39 1013.23 1013.04 1012.86 1012.70 1012.58 1012.50 1012.46 1012.46 1012.49 1012.53 1012.59
1004.34 1003.85 1003.52 1003.37 1003.40 1003.62 1003.99 1004.51 1005.14 1005.85 1006.62 1007.41 1008.18 1008.91 1009.59 1010.19 1010.71 1011.16 1011.55 1011.88 1012.18 1012.46 1012.72 1012.98 1013.23 1013.45 1013.63 1013.76 1013.83 1013.81 1013.72 1013.56 1013.35 1013.10 1012.83 1012.58 1012.36 1012.19 1012.07 1012.02 1012.02 1012.06 1012.14 1012.23
1004.09 1003.77 1003.65 1003.74 1004.01 1004.45 1005.03 1005.70 1006.43 1007.18 1007.93 1008.64 1009.30 1009.89 1010.42 1010.87 1011.27 1011.63 1011.94 1012.24 1012.52 1012.80 1013.07 1013.32 1013.55 1013.74 1013.88 1013.94 1013.91 1013.81 1013.62 1013.37 1013.06 1012.73 1012.40 1012.10 1011.84 1011.64 1011.52 1011.47 1011.50 1011.57 1011.70 1011.84
1004.17 1004.02 1004.08 1004.36 1004.82 1005.44 1006.16 1006.94 1007.74 1008.51 1009.22 1009.86 1010.42 1010.90 1011.30 1011.64 1011.94 1012.22 1012.48 1012.73 1012.99 1013.25 1013.49 1013.72 1013.90 1014.02 1014.07 1014.03 1013.90 1013.68 1013.39 1013.05 1012.66 1012.27 1011.90 1011.57 1011.30 1011.12 1011.01 1011.00 1011.06 1011.19 1011.36 1011.56
1004.74 1004.70 1004.88 1005.28 1005.86 1006.57 1007.37 1008.19 1009.00 1009.75 1010.42 1010.99 1011.46 1011.84 1012.15 1012.41 1012.64 1012.87 1013.09 1013.31 1013.55 1013.77 1013.98 1014.14 1014.25 1014.29 1014.23 1014.09 1013.85 1013.53 1013.15 1012.73 1012.29 1011.87 1011.48 1011.17 1010.93 1010.78 1010.72 1010.75 1010.86 1011.03 1011.25 1011.48
1005.83 1005.84 1006.07 1006.50 1007.10 1007.82 1008.61 1009.41 1010.17 1010.86 1011.46 1011.95 1012.34 1012.64 1012.89 1013.10 1013.29 1013.48 1013.68 1013.89 1014.10 1014.30 1014.46 1014.56 1014.60 1014.54 1014.39 1014.15 1013.82 1013.42 1012.98 1012.52 1012.07 1011.65 1011.30 1011.03 1010.84 1010.75 1010.76 1010.84 1011.00 1011.20 1011.43 1011.67
1007.37 1007.38 1007.58 1007.96 1008.50 1009.15 1009.85 1010.55 1011.21 1011.80 1012.30 1012.69 1013.00 1013.24 1013.44 1013.61 1013.79 1013.97 1014.17 1014.37 1014.57 1014.74 1014.87 1014.92 1014.89 1014.77 1014.55 1014.23 1013.85 1013.41 1012.95 1012.50 1012.08 1011.71 1011.42 1011.23 1011.12 1011.10 1011.16 1011.29 1011.48 1011.69 1011.91 1012.12
1009.20 1009.15 1009.27 1009.56 1009.97 1010.48 1011.03 1011.59 1012.10 1012.55 1012.92 1013.21 1013.43 1013.61 1013.76 1013.92 1014.08 1014.27 1014.47 1014.68 1014.88 1015.04 1015.14 1015.17 1015.11 1014.94 1014.69 1014.35 1013.96 1013.53 1013.10 1012.70 1012.35 1012.07 1011.87 1011.76 1011.74 1011.79 1011.90 1012.06 1012.24 1012.43 1012.60 1012.75
1011.06 1010.94 1010.95 1011.11 1011.37 1011.71 1012.09 1012.46 1012.80 1013.09 1013.32 1013.50 1013.64 1013.75 1013.86 1014.00 1014.16 1014.35 1014.56 1014.79 1014.99 1015.16 1015.27 1015.30 1015.23 1015.07 1014.83 1014.52 1014.16 1013.79 1013.43 1013.11 1012.86 1012.67 1012.58 1012.56 1012.61 1012.71 1012.85 1013.01 1013.16 1013.29 1013.38 1013.42
1012.68 1012.49 1012.42 1012.45 1012.57 1012.74 1012.94 1013.14 1013.31 1013.45 1013.54 1013.60 1013.65 1013.70 1013.77 1013.88 1014.04 1014.24 1014.47 1014.71 1014.94 1015.14 1015.27 1015.33 1015.30 1015.18 1014.99 1014.74 1014.46 1014.17 1013.91 1013.69 1013.54 1013.46 1013.45 1013.50 1013.60 1013.73 1013.87 1013.99 1014.08 1014.12 1014.11 1014.03
1013.87 1013.65 1013.51 1013.45 1013.45 1013.49 1013.55 1013.59 1013.62 1013.61 1013.58 1013.54 1013.50 1013.49 1013.53 1013.62 1013.78 1013.99 1014.24 1014.52 1014.79 1015.03 1015.21 1015.32 1015.36 1015.32 1015.20 1015.04 1014.85 1014.67 1014.50 1014.39 1014.32 1014.32 1014.37 1014.46 1014.58 1014.70 1014.80 1014.87 1014.88 1014.82 1014.69 1014.48
1014.54 1014.32 1014.16 1014.05 1013.98 1013.93 1013.87 1013.80 1013.71 1013.60 1013.47 1013.35 1013.25 1013.20 1013.21 1013.29 1013.45 1013.68 1013.97 1014.28 1014.60 1014.90 1015.16 1015.35 1015.46 1015.51 1015.49 1015.43 1015.34 1015.25 1015.17 1015.13 1015.12 1015.17 1015.24 1015.34 1015.44 1015.52 1015.56 1015.55 1015.47 1015.31 1015.07 1014.75
1014.69 1014.51 1014.37 1014.26 1014.16 1014.06 1013.94 1013.80 1013.63 1013.45 1013.26 1013.08 1012.95 1012.87 1012.87 1012.96 1013.14 1013.40 1013.73 1014.09 1014.48 1014.84 1015.18 1015.45 1015.66 1015.80 1015.88 1015.90 1015.90 1015.88 1015.86 1015.86 1015.88 1015.93 1015.99 1016.06 1016.11 1016.13 1016.10 1016.00 1015.83 1015.58 1015.26 1014.86
1014.49 1014.37 1014.27 1014.18 1014.08 1013.96 1013.82 1013.64 1013.43 1013.21 1012.99 1012.80 1012.65 1012.58 1012.59 1012.70 1012.92 1013.22 1013.59 1014.02 1014.47 1014.91 1015.32 1015.67 1015.97 1016.19 1016.34 1016.44 1016.49 1016.51 1016.52 1016.53 1016.55 1016.56 1016.58 1016.59 1016.58 1016.52 1016.42 1016.25 1016.01 1015.70 1015.32 1014.88
1014.11 1014.06 1014.01 1013.94 1013.86 1013.75 1013.59 1013.41 1013.19 1012.97 1012.75 1012.56 1012.43 1012.38 1012.43 1012.58 1012.84 1013.19 1013.62 1014.10 1014.61 1015.11 1015.59 1016.01 1016.37 1016.66 1016.86 1017.00 1017.08 1017.12 1017.13 1017.12 1017.09 1017.06 1017.02 1016.96 1016.87 1016.75 1016.58 1016.36 1016.08 1015.74 1015.35 1014.90
1013.79 1013.78 1013.76 1013.72 1013.65 1013.54 1013.39 1013.21 1013.00 1012.79 1012.60 1012.44 1012.35 1012.35 1012.44 1012.64 1012.95 1013.35 1013.83 1014.36 1014.91 1015.47 1015.99 1016.45 1016.85 1017.17 1017.40 1017.55 1017.64 1017.67 1017.65 1017.60 1017.53 1017.44 1017.34 1017.22 1017.07 1016.90 1016.69 1016.45 1016.16 1015.82 1015.44 1015.03
Thickness
5782 5780 5769 5757 5758 5765 5767 5774 5769 5767 5765 5766 5772 5774 5781 5787 5791 5791 5789 5787 5784 5781 5779 5777 5774 5773 5772 5769 5766 5762 5757 5752 5749 5747 5744 5741 5739 5736 5734 5731 5728 5725 5722 5720
5770 5780 5776 5766 5768 5771 5775 5782 5780 5773 5762 5774 5778 5778 5777 5781 5782 5782 5782 5782 5782 5780 5777 5774 5772 5772 5772 5770 5767 5764 5758 5754 5751 5747 5744 5740 5738 5735 5731 5728 5725 5722 5719 5716
5754 5770 5767 5759 5775 5778 5779 5783 5779 5764 5763 5769 5765 5766 5767 5770 5773 5774 5775 5777 5777 5776 5775 5773 5773 5772 5768 5767 5764 5760 5756 5753 5749 5746 5741 5739 5736 5732 5728 5724 5720 5717 5714 5711
5746 5749 5727 5763 5786 5784 5774 5776 5779 5773 5768 5763 5758 5760 5763 5767 5765 5765 5767 5768 5771 5772 5771 5771 5771 5769 5767 5764 5760 5756 5752 5748 5745 5741 5737 5734 5730 5726 5723 5719 5715 5711 5708 5705
5733 5730 5733 5753 5769 5769 5759 5755 5770 5764 5761 5761 5759 5752 5748 5755 5758 5757 5758 5759 5761 5764 5764 5763 5762 5761 5757 5754 5752 5747 5743 5740 5738 5736 5731 5727 5722 5719 5716 5711 5708 5704 5701 5698
5728 5720 5711 5732 5756 5768 5761 5739 5758 5760 5755 5755 5754 5734 5728 5742 5745 5746 5746 5747 5747 5749 5750 5749 5748 5748 5745 5740 5737 5733 5732 5730 5729 5726 5722 5718 5715 5711 5707 5703 5699 5696 5693 5691
5724 5719 5723 5739 5751 5755 5729 5724 5746 5750 5749 5745 5738 5731 5730 5733 5731 5732 5733 5733 5733 5732 5731 5731 5732 5732 5726 5724 5720 5721 5722 5720 5717 5713 5710 5707 5704 5701 5697 5693 5690 5686 5684 5682
5719 5708 5706 5736 5740 5732 5728 5741 5741 5741 5741 5735 5731 5728 5724 5721 5719 5719 5719 5719 5719 5716 5715 5715 5716 5714 5710 5707 5707 5709 5709 5706 5704 5701 5699 5695 5692 5689 5686 5683 5680 5677 5674 5673
5704 5705 5720 5732 5733 5735 5740 5734 5734 5733 5732 5728 5721 5715 5711 5709 5707 5706 5705 5704 5704 5702 5699 5699 5699 5699 5693 5692 5694 5694 5692 5691 5689 5687 5684 5681 5678 5676 5673 5670 5668 5666 5664 5662
5694 5701 5711 5720 5728 5733 5734 5731 5730 5728 5723 5718 5710 5705 5700 5697 5694 5693 5691 5690 5689 5688 5685 5682 5682 5682 5680 5679 5679 5678 5677 5675 5674 5672 5670 5667 5664 5663 5660 5657 5655 5653 5651 5648
5686 5695 5702 5708 5717 5721 5722 5722 5719 5717 5712 5706 5700 5693 5688 5683 5681 5679 5677 5676 5675 5673 5670 5668 5668 5666 5666 5666 5666 5664 5662 5661 5659 5659 5658 5655 5653 5651 5648 5645 5642 5640 5638 5636
5681 5692 5693 5696 5708 5712 5709 5706 5704 5700 5695 5692 5687 5681 5677 5672 5669 5667 5664 5663 5661 5659 5657 5655 5654 5653 5652 5652 5651 5650 5648 5647 5647 5646 5644 5643 5641 5640 5638 5635 5631 5628 5626 5623
5694 5698 5697 5699 5702 5703 5698 5694 5690 5686 5681 5676 5673 5670 5665 5660 5658 5656 5653 5650 5648 5646 5644 5643 5641 5640 5639 5639 5637 5635 5633 5633 5633 5632 5631 5630 5629 5628 5626 5623 5620 5617 5614 5611
5694 5693 5687 5687 5686 5687 5685 5681 5677 5671 5667 5665 5661 5658 5654 5650 5647 5644 5641 5639 5638 5636 5633 5632 5630 5628 5627 5626 5624 5622 5621 5621 5619 5619 5618 5617 5617 5616 5614 5612 5609 5607 5604 5599
5684 5683 5677 5675 5673 5671 5669 5666 5660 5655 5652 5649 5647 5643 5640 5636 5633 5631 5630 5629 5626 5623 5621 5619 5617 5615 5614 5613 5611 5609 5609 5609 5608 5606 5606 5606 5605 5604 5602 5600 5597 5595 5594 5590
5669 5667 5664 5660 5657 5655 5653 5649 5644 5640 5637 5635 5632 5629 5628 5625 5623 5621 5620 5618 5614 5611 5608 5606 5604 5603 5602 5600 5598 5598 5598 5597 5595 5595 5595 5595 5593 5591 5589 5586 5583 5581 5578 5575
5654 5649 5647 5645 5643 5640 5637 5635 5632 5629 5626 5623 5620 5619 5617 5614 5611 5608 5606 5605 5603 5600 5598 5595 5593 5591 5590 5588 5587 5586 5586 5586 5584 5584 5584 5582 5580 5577 5574 5572 5569 5566 5563 5560
5648 5643 5640 5636 5631 5627 5624 5622 5620 5617 5614 5612 5611 5607 5604 5601 5597 5595 5594 5593 5591 5588 5586 5584 5580 5578 5577 5575 5573 5572 5573 5574 5572 5571 5570 5568 5565 5563 5560 5558 5554 5551 5548 5545
5634 5630 5627 5623 5620 5616 5613 5610 5608 5606 5604 5602 5599 5595 5592 5589 5587 5584 5583 5580 5578 5575 5572 5571 5566 5565 5564 5561 5558 5559 5559 5559 5558 5556 5554 5551 5550 5548 5545 5541 5538 5534 5532 5529
5620 5618 5615 5613 5610 5607 5603 5601 5598 5595 5593 5591 5588 5584 5581 5578 5576 5574 5571 5569 5566 5562 5560 5558 5556 5553 5550 5546 5542 5545 5545 5544 5542 5541 5538 5536 5533 5530 5527 5525 5522 5519 5516 5513
5607 5606 5603 5601 5598 5596 5595 5592 5589 5586 5584 5581 5577 5573 5570 5567 5566 5563 5560 5557 5553 5549 5547 5545 5542 5537 5535 5529 5529 5531 5531 5529 5527 5524 5522 5519 5516 5513 5510 5507 5505 5502 5500 5498
5597 5595 5593 5591 5588 5585 5584 5582 5579 5576 5572 5569 5567 5563 5560 5556 5555 5552 5549 5544 5541 5534 5534 5532 5527 5520 5517 5515 5518 5518 5516 5513 5511 5508 5505 5502 5500 5497 5494 5492 5490 5488 5485 5483
5585 5583 5581 5579 5577 5575 5574 5572 5569 5565 5562 5558 5556 5552 5549 5545 5543 5540 5536 5532 5528 5521 5519 5516 5509 5506 5502 5505 5505 5503 5501 5498 5496 5493 5490 5487 5485 5482 5480 5478 5476 5475 5473 5472
5573 5571 5570 5569 5567 5565 5562 5561 5558 5555 5552 5549 5546 5543 5539 5536 5532 5529 5524 5518 5513 5509 5508 5501 5497 5494 5491 5493 5492 5489 5487 5483 5481 5478 5475 5473 5471 5469 5466 5464 5463 5462 5462 5462
5562 5561 5560 5558 5556 5555 5553 5551 5548 5544 5541 5538 5535 5532 5528 5524 5520 5516 5512 5507 5502 5498 5496 5491 5486 5483 5483 5482 5479 5476 5473 5469 5466 5463 5462 5460 5459 5457 5455 5453 5452 5452 5452 5453
5553 5552 5550 5547 5546 5544 5543 5540 5537 5532 5529 5526 5523 5519 5515 5512 5508 5504 5500 5497 5493 5488 5485 5482 5478 5474 5472 5470 5466 5463 5460 5458 5457 5454 5451 5450 5448 5447 5445 5445 5445 5445 5446 5447
5547 5545 5542 5540 5538 5536 5532 5528 5524 5520 5517 5513 5509 5506 5504 5501 5497 5493 5490 5486 5483 5479 5476 5471 5468 5464 5461 5458 5455 5453 5451 5449 5446 5444 5442 5441 5439 5439 5438 5439 5439 5440 5441 5442